Weather History for Jaipur, India

Change the Weather History Date:

Thursday, October 24, 2013

  Actual Average Record
Temperature  
Mean Temperature 78 °F -  
Max Temperature 87 °F - - ()
Min Temperature 68 °F - - ()
Cooling Degree Days 12    
Growing Degree Days 28 (Base 50)    
Moisture  
Dew Point 58 °F    
Average Humidity 51    
Maximum Humidity 68    
Minimum Humidity 32    
Precipitation  
Precipitation 0.00 in - - ()
Sea Level Pressure  
Sea Level Pressure 29.95 in    
Wind  
Wind Speed 3 mph ()    
Max Wind Speed 8 mph    
Max Gust Speed -    
Visibility 1.4 miles    
Events      
T = Trace of Precipitation, MM = Missing Value Source: Averaged Metar Reports

Daily Weather History Graph

Daily Weather History Graph

Search for Another Location

Airport:

Trip Planner

Search our weather history database for the weather conditions in past years. The results will help you decide how hot, cold, wet, or windy it might be!

Date:

Astronomy

Oct. 24, 2013 Rise Set
Actual Time 6:31 AM IST 5:50 PM IST
Civil Twilight 6:07 AM IST 6:13 PM IST
Nautical Twilight 5:40 AM IST 6:41 PM IST
Astronomical Twilight 5:13 AM IST 7:08 PM IST
Moon 10:01 PM IST (10/24) 10:59 AM IST (10/24)
Length of Visible Light 12h 06m
Length of Day
11h 18m
Waning Gibbous, 75% of the Moon is Illuminated
Oct 24
Waning Gibbous
Oct 27
Last Quarter
Nov 3
New
Nov 10
First Quarter
Nov 17
Full

Hourly Weather History & Observations

Time (IST) Temp. Heat Index Dew Point Humidity Pressure Visibility Wind Dir Wind Speed Gust Speed Precip Events Conditions
12:00 AM 73.4 °F - 51.8 °F 47% 29.98 in 1.2 mi East 3.5 mph - N/A   Smoke
1:00 AM 73.4 °F - 53.6 °F 50% 29.98 in 1.2 mi East 4.6 mph - N/A   Smoke
2:00 AM 71.6 °F - 55.4 °F 57% 29.98 in 1.2 mi East 4.6 mph - N/A   Smoke
2:30 AM 73 °F - 57 °F 47% 29.91 in 1 mi Calm Calm - -   Smoke
3:00 AM 73.4 °F - 57.2 °F 57% 29.98 in 1.2 mi Calm Calm - N/A   Smoke
4:00 AM 69.8 °F - 57.2 °F 64% 29.98 in 1.2 mi Calm Calm - N/A   Smoke
4:30 AM 69.8 °F - 57.2 °F 64% 29.98 in 1.2 mi Calm Calm - N/A   Smoke
5:30 AM 69 °F - 58 °F 59% 29.93 in 1 mi Calm Calm - -   Smoke
6:00 AM 69.8 °F - 59.0 °F 68% 29.98 in 1.2 mi Calm Calm - N/A   Smoke
7:00 AM 69.8 °F - 59.0 °F 68% 30.01 in 1.2 mi Calm Calm - N/A   Smoke
8:00 AM 73.4 °F - 60.8 °F 65% 30.04 in 1.2 mi ENE 4.6 mph - N/A   Smoke
8:30 AM 75 °F - 62 °F 56% 29.96 in 1 mi ENE 4.6 mph - -   Smoke
10:00 AM 80.6 °F 81.8 °F 62.6 °F 54% 30.04 in 1.9 mi ESE 5.8 mph - N/A   Haze
11:00 AM 82.4 °F 83.4 °F 62.6 °F 51% 30.04 in 1.9 mi ESE 8.1 mph - N/A   Haze
11:30 AM 84 °F - 61 °F 36% 29.94 in 1 mi SE 2.3 mph - -   Haze
12:00 PM 84.2 °F 84.4 °F 60.8 °F 45% 30.01 in 1.9 mi East 6.9 mph - N/A   Haze
1:00 PM 86.0 °F 85.4 °F 59.0 °F 40% 29.98 in 1.9 mi East 8.1 mph - N/A   Haze
2:00 PM 86.0 °F 84.9 °F 57.2 °F 37% 29.95 in 1.9 mi East 6.9 mph - N/A   Haze
3:00 PM 86.0 °F 84.5 °F 55.4 °F 35% 29.92 in 1.9 mi NE 5.8 mph - N/A   Haze
4:00 PM 86.0 °F 84.5 °F 55.4 °F 35% 29.92 in 1.9 mi NE 8.1 mph - N/A   Haze
5:00 PM 84.2 °F 83.5 °F 57.2 °F 40% 29.89 in 1.9 mi ENE 5.8 mph - N/A   Haze
5:30 PM 83 °F - 58 °F 32% 29.83 in 1 mi NE 5.8 mph - -   Haze
6:00 PM 82.4 °F 82.0 °F 57.2 °F 42% 29.92 in 1.9 mi Variable 2.3 mph - N/A   Haze
7:00 PM 78.8 °F - 59.0 °F 51% 29.92 in 1.6 mi Calm Calm - N/A   Smoke
8:00 PM 78.8 °F - 59.0 °F 51% 29.95 in 1.2 mi Calm Calm - N/A   Smoke
8:30 PM 77 °F - 59 °F 44% 29.88 in 1 mi Calm Calm - -   Smoke
9:00 PM 77.0 °F - 59.0 °F 54% 29.95 in 1.2 mi Calm Calm - N/A   Smoke
10:00 PM 75.2 °F - 59.0 °F 57% 29.95 in 1.2 mi Calm Calm - N/A   Smoke
11:00 PM 73.4 °F - 59.0 °F 61% 29.95 in 1.2 mi Calm Calm - N/A   Smoke
11:30 PM 73 °F - 60 °F 54% 29.89 in 1 mi Calm Calm - -   Smoke